• In Czech Republic
  • List of Countries
  • For 7 days
  • Water Temperature
  • Satellite Maps
  • Weather Map
  • Weather Widgets
  • user-avatar
    Login

    Hourly Weather Solden

    Today, 13 December, Wednesday

    Time Temperature Precipitation Wind Pressure Humidity
    00:00 -12°C° 0.2 mm 2 mps 576 mmHg 91%
    01:00 -11°C° 0 mm 1 mps 575 mmHg 93%
    02:00 -11°C° 0 mm 1 mps 575 mmHg 92%
    03:00 -12°C° 0 mm 1 mps 575 mmHg 90%
    04:00 -13°C° 0 mm 1 mps 575 mmHg 89%
    05:00 -13°C° 0 mm 1 mps 575 mmHg 87%
    06:00 -13°C° 0 mm 1 mps 574 mmHg 85%
    07:00 -13°C° 0 mm 1 mps 575 mmHg 81%
    08:00 -12°C° 0 mm 1 mps 575 mmHg 78%
    09:00 -11°C° 0 mm 1 mps 576 mmHg 75%
    10:00 -10°C° 0 mm 1 mps 576 mmHg 73%
    11:00 -8°C° 0 mm 1 mps 577 mmHg 71%
    12:00 -7°C° 0 mm 1 mps 577 mmHg 70%
    13:00 -6°C° 0 mm 1 mps 577 mmHg 69%
    14:00 -8°C° 0 mm 2 mps 576 mmHg 74%
    15:00 -9°C° 0 mm 2 mps 575 mmHg 79%
    16:00 -10°C° 0 mm 2 mps 574 mmHg 84%
    17:00 -10°C° 0 mm 2 mps 574 mmHg 84%
    18:00 -12°C° 0 mm 2 mps 574 mmHg 84%
    19:00 -13°C° 0 mm 2 mps 573 mmHg 85%
    20:00 -13°C° 0 mm 2 mps 573 mmHg 83%
    21:00 -13°C° 0 mm 2 mps 573 mmHg 82%
    22:00 -13°C° 0 mm 2 mps 572 mmHg 81%
    23:00 -13°C° 0 mm 3 mps 572 mmHg 81%

    Tomorrow, 14 December, Thursday

    Time Temperature Precipitation Wind Pressure Humidity
    00:00 -13°C° 0 mm 3 mps 572 mmHg 81%
    01:00 -13°C° 0 mm 3 mps 572 mmHg 81%
    02:00 -12°C° 0.1 mm 3 mps 571 mmHg 82%
    03:00 -12°C° 0.1 mm 3 mps 571 mmHg 83%
    04:00 -12°C° 0.1 mm 3 mps 571 mmHg 84%
    05:00 -12°C° 0.1 mm 3 mps 571 mmHg 84%
    06:00 -10°C° 0.1 mm 2 mps 571 mmHg 83%
    07:00 -10°C° 0.1 mm 2 mps 571 mmHg 83%
    08:00 -9°C° 0.1 mm 2 mps 571 mmHg 82%
    09:00 -8°C° 0.1 mm 2 mps 572 mmHg 81%
    10:00 -7°C° 0.1 mm 2 mps 573 mmHg 81%
    11:00 -6°C° 0.2 mm 2 mps 573 mmHg 81%
    12:00 -6°C° 0.2 mm 2 mps 573 mmHg 80%
    13:00 -5°C° 0.2 mm 2 mps 573 mmHg 80%
    14:00 -6°C° 0.4 mm 2 mps 572 mmHg 83%
    15:00 -6°C° 0.4 mm 2 mps 572 mmHg 86%
    16:00 -6°C° 0.4 mm 1 mps 571 mmHg 89%
    17:00 -8°C° 0.1 mm 2 mps 571 mmHg 89%
    18:00 -8°C° 0.1 mm 2 mps 570 mmHg 88%
    19:00 -9°C° 0.1 mm 2 mps 570 mmHg 87%
    20:00 -12°C° 0 mm 3 mps 569 mmHg 86%
    21:00 -12°C° 0 mm 3 mps 569 mmHg 86%
    22:00 -13°C° 0 mm 3 mps 568 mmHg 85%
    23:00 -13°C° 0 mm 3 mps 568 mmHg 85%

    Day after tomorrow, 15 December, Friday

    Time Temperature Precipitation Wind Pressure Humidity
    00:00 -12°C° 0 mm 3 mps 568 mmHg 86%
    01:00 -12°C° 0 mm 3 mps 567 mmHg 87%
    02:00 -12°C° 0.1 mm 3 mps 567 mmHg 88%
    03:00 -12°C° 0.1 mm 3 mps 567 mmHg 89%
    04:00 -12°C° 0.1 mm 3 mps 567 mmHg 90%
    05:00 -9°C° 0.3 mm 2 mps 567 mmHg 90%
    06:00 -9°C° 0.3 mm 2 mps 568 mmHg 91%
    07:00 -7°C° 0.3 mm 1 mps 568 mmHg 92%
    08:00 -7°C° 0.4 mm 1 mps 568 mmHg 92%
    09:00 -6°C° 0.4 mm 1 mps 568 mmHg 91%
    10:00 -6°C° 0.4 mm 1 mps 569 mmHg 90%
    11:00 -4°C° 0.4 mm 1 mps 568 mmHg 89%
    12:00 -6°C° 0.4 mm 2 mps 568 mmHg 87%
    13:00 -6°C° 0.4 mm 2 mps 568 mmHg 86%
    14:00 -6°C° 0.7 mm 2 mps 568 mmHg 88%
    15:00 -7°C° 0.7 mm 2 mps 567 mmHg 90%
    16:00 -7°C° 0.7 mm 2 mps 567 mmHg 92%
    17:00 -8°C° 1 mm 2 mps 567 mmHg 93%
    18:00 -8°C° 1 mm 2 mps 567 mmHg 93%
    19:00 -10°C° 1 mm 3 mps 567 mmHg 94%
    20:00 -12°C° 0.7 mm 3 mps 567 mmHg 93%
    21:00 -12°C° 0.7 mm 3 mps 567 mmHg 92%
    22:00 -13°C° 0.7 mm 3 mps 567 mmHg 91%
    23:00 -13°C° 0.2 mm 3 mps 567 mmHg 90%

    16 December, Saturday

    Time Temperature Precipitation Wind Pressure Humidity
    00:00 -13°C° 0.2 mm 2 mps 566 mmHg 88%
    01:00 -13°C° 0.2 mm 2 mps 566 mmHg 87%
    02:00 -14°C° 0.1 mm 2 mps 566 mmHg 86%
    03:00 -14°C° 0.1 mm 2 mps 566 mmHg 85%
    04:00 -15°C° 0.1 mm 2 mps 566 mmHg 84%
    05:00 -15°C° 0 mm 2 mps 566 mmHg 83%
    06:00 -15°C° 0 mm 2 mps 567 mmHg 82%
    07:00 -16°C° 0 mm 2 mps 567 mmHg 81%
    08:00 -15°C° 0 mm 2 mps 568 mmHg 80%
    09:00 -14°C° 0 mm 2 mps 569 mmHg 79%
    10:00 -12°C° 0 mm 2 mps 570 mmHg 79%
    11:00 -10°C° 0.1 mm 2 mps 571 mmHg 77%
    12:00 -9°C° 0.1 mm 2 mps 571 mmHg 76%
    13:00 -9°C° 0.1 mm 2 mps 572 mmHg 75%
    14:00 -9°C° 0.1 mm 2 mps 572 mmHg 78%
    15:00 -10°C° 0.1 mm 2 mps 572 mmHg 81%
    16:00 -12°C° 0.1 mm 2 mps 572 mmHg 84%
    17:00 -13°C° 0.1 mm 2 mps 572 mmHg 85%
    18:00 -14°C° 0.1 mm 2 mps 572 mmHg 86%
    19:00 -15°C° 0.1 mm 2 mps 572 mmHg 87%
    20:00 -15°C° 0.1 mm 2 mps 572 mmHg 86%
    21:00 -15°C° 0.1 mm 2 mps 573 mmHg 86%
    22:00 -15°C° 0.1 mm 2 mps 573 mmHg 86%
    23:00 -15°C° 0.1 mm 2 mps 573 mmHg 86%

    17 December, Sunday

    Time Temperature Precipitation Wind Pressure Humidity
    00:00 -16°C° 0.1 mm 2 mps 574 mmHg 86%
    01:00 -16°C° 0.1 mm 2 mps 574 mmHg 86%
    02:00 -16°C° 0 mm 2 mps 574 mmHg 86%
    03:00 -16°C° 0 mm 2 mps 574 mmHg 86%
    04:00 -17°C° 0 mm 2 mps 574 mmHg 86%
    05:00 -17°C° 0 mm 2 mps 574 mmHg 85%
    06:00 -17°C° 0 mm 2 mps 575 mmHg 85%
    07:00 -17°C° 0 mm 2 mps 575 mmHg 85%
    08:00 -16°C° 0.1 mm 2 mps 576 mmHg 83%
    09:00 -15°C° 0.1 mm 2 mps 577 mmHg 81%
    10:00 -14°C° 0.1 mm 2 mps 578 mmHg 80%
    11:00 -13°C° 0.1 mm 2 mps 578 mmHg 77%
    12:00 -13°C° 0.1 mm 2 mps 578 mmHg 73%
    13:00 -12°C° 0.1 mm 2 mps 579 mmHg 70%
    14:00 -13°C° 0 mm 2 mps 578 mmHg 73%
    15:00 -14°C° 0 mm 2 mps 578 mmHg 77%
    16:00 -15°C° 0 mm 2 mps 578 mmHg 80%
    17:00 -15°C° 0.1 mm 2 mps 578 mmHg 81%
    18:00 -16°C° 0.1 mm 2 mps 578 mmHg 82%
    19:00 -16°C° 0.1 mm 2 mps 579 mmHg 82%
    20:00 -17°C° 0.1 mm 2 mps 579 mmHg 83%
    21:00 -17°C° 0.1 mm 2 mps 579 mmHg 83%
    22:00 -17°C° 0.1 mm 2 mps 579 mmHg 83%
    23:00 -18°C° 0 mm 2 mps 579 mmHg 84%

    18 December, Monday

    Time Temperature Precipitation Wind Pressure Humidity
    00:00 -18°C° 0 mm 2 mps 579 mmHg 84%
    01:00 -19°C° 0 mm 2 mps 579 mmHg 84%
    02:00 -19°C° 0 mm 2 mps 579 mmHg 84%
    03:00 -19°C° 0 mm 2 mps 579 mmHg 84%
    04:00 -20°C° 0 mm 2 mps 578 mmHg 84%
    05:00 -19°C° 0 mm 2 mps 579 mmHg 83%
    06:00 -19°C° 0 mm 2 mps 579 mmHg 82%
    07:00 -19°C° 0 mm 2 mps 579 mmHg 81%
    08:00 -17°C° 0 mm 2 mps 580 mmHg 79%
    09:00 -16°C° 0 mm 2 mps 580 mmHg 77%
    10:00 -14°C° 0 mm 2 mps 581 mmHg 76%
    11:00 -11°C° 0.2 mm 1 mps 581 mmHg 76%
    12:00 -10°C° 0.2 mm 1 mps 581 mmHg 76%
    13:00 -9°C° 0.2 mm 1 mps 581 mmHg 76%
    14:00 -9°C° 0.5 mm 1 mps 580 mmHg 80%
    15:00 -9°C° 0.5 mm 1 mps 580 mmHg 83%
    16:00 -9°C° 0.5 mm 1 mps 579 mmHg 87%
    17:00 -10°C° 0.7 mm 1 mps 579 mmHg 88%
    18:00 -10°C° 0.7 mm 1 mps 579 mmHg 90%
    19:00 -10°C° 0.7 mm 1 mps 579 mmHg 91%
    20:00 -10°C° 0.4 mm 1 mps 580 mmHg 91%
    21:00 -10°C° 0.4 mm 1 mps 580 mmHg 91%
    22:00 -10°C° 0.4 mm 1 mps 580 mmHg 91%
    23:00 -12°C° 0.1 mm 2 mps 580 mmHg 90%
    Show more